THORAD AGENA D DEB, 5389

Orbit data source: Space-Track

THORAD AGENA D DEB, 5389 is space debris in SSO originally from a launch on Wed, 08 Apr 1970 UTC launched from the Air Force Western Test Range (AFWTR). Debris objects in space refer to the collection of defunct objects orbiting the Earth. Examples of debris include non-operational satellites, rocket bodies, and fragments generated from explosions, collisions, or faulty payload assembly.

Loading next visibility...
Identifier
5389, 1970-025KU
Orbit
SSO
Country
Flag of USUS
Related business
Manufacturer
Unknown
Mission
Spacecraft
Bus & Motor
Unknown
Mass
Unknown
Launch date (UTC)
1970-04-08 (56 years ago)
Launch vehicle
Unknown
Launch site
Air Force Western Test Range (AFWTR)
Object type
Payload
Rocket body
Debris
Shape & HBR
Unknown shape, 0.1 m
Radar Cross Section
Small (<0.1 m²)

Expand to show TLE details & history
Last TLE update: 18 hours ago

TLE from 18 hours ago
0 THORAD AGENA D DEB
1 05389U 70025KU  25292.13130081  .00000135  00000-0  44382-3 0  9999
2 05389  99.8332 341.2279 0203009 145.3399 242.0384 13.11225589655834
Epoch: 2025-10-19T03:09Z
TLE epoch observation values (Epoch: 2025-10-19T03:09:04.389Z)
Latitude
24.97762°
Longitude
-98.50075°
Altitude
1,296.016 km
Speed
7.175 km/s
True Right ascension
22h 26m 28s
True Declination
24° 51' 20"
Sunlit
Object was in full shadow at epoch
Visualization orbit readout
Latitude
Unknown
Longitude
Unknown
Altitude
Unknown
Speed
Unknown
Apparent Right ascension
Unknown
Apparent Declination
Unknown
Sunlit
N/A
Visualization observer readout
Local Sidereal Time
15:35:31
Azimuth
Unknown
Elevation
Unknown
Doppler factor
Unknown
Orbital elements
Apogee altitude
1,369.944 km
Perigee altitude
1,061.617 km
Semi-major axis
7,593.917 km
Eccentricity
0.0203
Inclination
99.8332°
RAAN
341.2279°
Arg. of periapsis
145.3399°
True anomaly
240.00825°
Mean anomaly
242.0384°
Eccentric anomaly
241.02088°
Mean motion
3.27978 °/min
Orbital period
109.76 mins
BSTAR
0.00044382
Loading maneuver chart data...
Computing Atmospheric mass density...

Documentation

Showing up to 5 results
|